Weather observations for the past three days for
Astoria, Astoria Regional Airport
Imperial (Metric)
Date Time (pdt) Wind (mph) Vis. (mi.) Weather Sky Cond. Temperature (ºF) Relative Humidity Wind Chill (°F) Heat Index (°F) Pressure Precipitation (in)
Air Dwpt 6 hour altimeter (in) sea level (mb) 1 hr 3 hr 6 hr
Max. Min.
21 13:55 NW 14 10.00 Overcast OVC016 64 57 78% 30.15 1021.1
21 12:55 NW 13 10.00 Overcast SCT013 OVC020 66 57 73% 30.15 1020.9
21 11:55 NW 12 9.00 Overcast BKN008 OVC019 63 57.9 84% 30.15 1020.9
21 10:55 W 9 6.00 Fog/Mist OVC006 62.1 57.9 62.1 59 86% 30.15 1020.8
21 09:55 W 13 G 22 10.00 Overcast OVC006 61 57 87% 30.13 1020.2
21 08:55 W 10 10.00 Overcast OVC008 61 57.9 90% 30.12 1019.9
21 07:55 NW 9 10.00 Light Rain BKN008 BKN110 60.1 57 90% 30.06 1018.0
21 06:55 NW 10 10.00 Light Rain OVC008 60.1 55.9 86% 30.1 1019.4
21 05:55 SW 10 10.00 Overcast OVC014 61 55.9 84% 30.12 1019.8
21 04:55 N 13 G 25 10.00 Overcast OVC013 61 55.9 61 60.1 84% 30.05 1017.4
21 03:55 SW 10 10.00 Overcast OVC011 60.1 55.9 86% 30.18 1022.0
21 02:55 W 8 G 18 10.00 Overcast OVC010 61 55.9 84% 30.15 1020.7
21 01:55 NW 13 10.00 Overcast OVC006 60.1 57 90% 30.08 1018.4
21 00:55 NW 12 9.00 Overcast OVC005 61 57 87% 30.07 1018.3
20 23:55 NW 13 10.00 Overcast OVC006 60.1 57 90% 30.08 1018.6
20 22:55 NW 14 10.00 Mostly Cloudy BKN006 61 57 73 60.1 87% 30.08 1018.5
20 21:55 NW 14 G 24 10.00 Partly Cloudy SCT006 61 57 87% 30.08 1018.5
20 20:55 NW 16 G 28 10.00 Fair CLR 62.1 57 84% 30.07 1018.3
20 19:55 NW 22 G 30 10.00 Fair and Breezy CLR 64.9 57.9 78% 30.06 1017.9
20 18:55 NW 24 G 33 10.00 Fair and Breezy CLR 69.1 59 70% 30.06 1017.7
20 17:55 NW 20 10.00 Fair CLR 71.1 60.1 68% 30.06 1017.7
20 16:55 NW 16 10.00 Fair CLR 73 60.1 75 68 64% 30.07 1018.2
20 15:55 NW 13 10.00 Fair CLR 75 60.1 60% 77 30.08 1018.6
20 14:55 W 12 10.00 Fair CLR 73 61 66% 30.09 1019.0
20 13:55 NW 12 10.00 Fair CLR 73.9 61 64% 30.11 1019.4
20 12:55 NW 8 10.00 Fair CLR 73.9 60.1 62% 30.12 1019.9
20 11:55 N 12 10.00 Fair CLR 71.1 59 66% 30.13 1020.3
20 10:55 W 6 10.00 Mostly Cloudy BKN015 68 59 68 57.9 73% 30.15 1020.8
20 09:55 N 5 10.00 Mostly Cloudy BKN009 66 59 78% 30.16 1021.2
20 08:55 Calm 10.00 Overcast OVC006 62.1 57.9 86% 30.16 1021.3
20 07:55 Calm 10.00 Overcast OVC004 60.1 57 90% 30.15 1021.0
20 06:55 Calm 10.00 Overcast OVC005 59 57.9 96% 30.15 1021.0
20 05:55 SW 5 10.00 Overcast OVC005 59 57 93% 30.16 1021.2
20 04:55 S 3 1.00 Fog/Mist OVC002 57.9 57 60.1 57.9 97% 30.16 1021.2
20 03:55 SW 6 0.75 Fog/Mist VV002 57.9 55.9 93% 30.16 1021.4
20 02:55 Calm 0.75 Fog/Mist OVC002 57.9 57 97% 30.16 1021.2
20 01:55 W 5 1.25 Fog/Mist OVC002 57.9 55.9 93% 30.16 1021.2
20 00:55 Calm 8.00 Overcast OVC003 59 57 93% 30.17 1021.5
19 23:55 Calm 4.00 Fog/Mist OVC003 59 57 93% 30.17 1021.5
19 22:55 SW 3 10.00 Overcast OVC004 60.1 57 70 60.1 90% 30.17 1021.6
19 21:55 SW 3 10.00 Overcast OVC007 61 57 87% 30.18 1021.8
19 20:55 SW 6 10.00 Fair CLR 62.1 57 84% 30.16 1021.2
19 19:55 W 7 10.00 Fair CLR 66 57.9 75% 30.16 1021.1
19 18:55 W 6 10.00 Fair CLR 68 59 73% 30.16 1021.3
19 17:55 SW 7 10.00 Fair CLR 68 59 73% 30.17 1021.5
19 16:55 W 8 10.00 Fair CLR 70 57.9 71.1 64 66% 30.18 1021.8
19 15:55 W 8 10.00 Fair CLR 70 57.9 66% 30.18 1022.1
19 14:55 SW 7 10.00 Fair CLR 71.1 59 66% 30.19 1022.3
19 13:55 W 6 10.00 Fair CLR 70 57.9 66% 30.2 1022.6
19 12:55 W 7 10.00 Fair CLR 68 59 73% 30.21 1022.8
19 11:55 N 7 10.00 Mostly Cloudy BKN012 66 57.9 75% 30.2 1022.8
19 10:55 N 7 10.00 Overcast OVC011 64 57 64.9 55.9 78% 30.21 1022.8
19 09:55 Calm 10.00 Overcast OVC008 63 57 81% 30.21 1022.9
19 08:55 Calm 10.00 Overcast OVC005 59 55.9 90% 30.2 1022.7
19 07:55 Calm 8.00 Overcast OVC003 57 55.9 96% 30.2 1022.8
19 06:55 SE 3 5.00 Fog/Mist OVC003 57 55 93% 30.19 1022.4
19 05:55 S 5 4.00 Fog/Mist OVC005 57 55 93% 30.17 1021.7
19 04:54 SE 6 3.00 Fog/Mist OVC006 57.9 55 60.1 57.9 90% 30.17 1021.5
19 03:55 S 5 4.00 Fog/Mist OVC005 57.9 55.9 93% 30.16 1021.4
19 02:55 S 5 4.00 Fog/Mist OVC005 59 57 93% 30.16 1021.3
19 01:55 SW 3 7.00 Overcast OVC006 59 55.9 90% 30.16 1021.4
19 00:55 SW 3 10.00 Overcast OVC009 60.1 57 90% 30.16 1021.3
18 23:55 S 3 10.00 Overcast SCT007 OVC012 60.1 57 90% 30.15 1020.9
18 22:55 SW 5 10.00 Overcast OVC004 59 57 66 57.9 93% 30.15 1020.8
18 21:55 S 5 5.00 Fog/Mist OVC003 59 55.9 90% 30.14 1020.6
18 20:55 SW 7 2.00 Fog/Mist OVC003 59 55.9 90% 30.13 1020.4
18 19:55 SW 7 6.00 Fog/Mist OVC005 60.1 55.9 86% 30.12 1019.9
18 18:55 W 5 10.00 Overcast OVC006 62.1 57 84% 30.12 1019.8
18 17:55 SW 8 10.00 Overcast OVC009 63 55.9 78% 30.12 1019.9
18 16:55 SW 9 10.00 Fair CLR 66 57 66.9 61 73% 30.13 1020.1
18 15:55 SW 12 10.00 Fair CLR 66 55.9 70% 30.13 1020.1
18 14:55 SW 13 10.00 Fair CLR 66 55 68% 30.13 1020.1
Date Time (pdt) Wind (mph) Vis. (mi.) Weather Sky Cond. Air Dwpt Max. Min. Relative Humidity Wind Chill (°F) Heat Index (°F) altimeter (in) sea level (mb) 1 hr 3 hr 6 hr
6 hour
Temperature (ºF) Pressure Precipitation (in)